FW8712 Weather Reports


Display with metric or nautical units.
time (UTC)temp
F
wind
direction
speed
MPH
gust
MPH
rain 1hr
in
rain 24hr
in
rain mn
in
humidity
%
barometer
mb
20260901075040 65 118 6.0 9.0 0.00 0.00 0.00 90 1015.4
20260901074559 65 109 5.0 9.0 0.00 0.00 0.00 90 1015.7
20260901074039 65 81 7.0 15.0 0.00 0.00 0.00 90 1016.0
20260901073539 66 68 9.0 16.0 0.00 0.00 0.00 90 1015.9
20260901073058 66 51 12.0 16.0 0.00 0.00 0.00 90 1015.8
20260901072540 66 59 10.0 13.0 0.00 0.00 0.00 90 1015.8
20260901072041 66 47 10.0 13.0 0.00 0.00 0.00 90 1016.0
20260901071558 67 41 9.0 11.0 0.00 0.00 0.00 90 1015.9
20260901071044 66 51 4.0 8.0 0.00 0.00 0.00 90 1015.8
20260901070538 67 86 3.0 8.0 0.00 0.00 0.00 90 1015.7
20260901065539 67 65 6.0 8.0 0.00 0.00 0.00 90 1015.5
20260901065041 67 68 2.0 4.0 0.00 0.00 0.00 90 1015.6
20260901064551 67 0 2.0 3.0 0.00 0.00 0.00 90 1015.6
20260901064043 67 171 0.0 3.0 0.00 0.00 0.00 90 1015.8
20260901063538 67 47 0.0 4.0 0.00 0.00 0.00 90 1015.9
20260901063051 66 47 2.0 4.0 0.00 0.00 0.00 90 1015.9
20260901062538 67 47 2.0 3.0 0.00 0.00 0.00 91 1015.9
20260901062039 67 119 0.0 3.0 0.00 0.00 0.00 91 1015.7
20260901061600 67 119 1.0 3.0 0.00 0.00 0.00 91 1015.8
20260901061039 66 119 1.0 3.0 0.00 0.00 0.00 91 1016.0
20260901060539 66 119 1.0 3.0 0.00 0.00 0.00 90 1016.1
20260901060100 66 119 2.0 3.0 0.00 0.00 0.00 90 1016.2
20260901055540 66 119 0.0 5.0 0.00 0.00 0.00 91 1016.3
20260901055039 66 119 2.0 6.0 0.00 0.00 0.00 91 1016.3
20260901054603 66 69 3.0 6.0 0.00 0.00 0.00 91 1016.1
20260901054039 66 0 0.0 0.0 0.00 0.00 0.00 91 1016.1
20260901053540 66 0 0.0 0.0 0.00 0.00 0.00 91 1016.0
20260901053122 66 0 0.0 0.0 0.00 0.00 0.00 91 1016.1
20260901052539 66 0 0.0 0.0 0.00 0.00 0.00 90 1016.1
20260901052039 66 0 0.0 0.0 0.00 0.00 0.00 90 1016.2
20260901051604 66 0 0.0 0.0 0.00 0.00 0.00 90 1016.2
20260901051039 66 0 0.0 0.0 0.00 0.00 0.00 90 1016.1
20260901050542 66 0 0.0 0.0 0.00 0.00 0.00 90 1016.1
20260901050055 66 0 0.0 0.0 0.00 0.00 0.00 90 1016.3
20260901045538 66 0 0.0 0.0 0.00 0.00 0.00 90 1016.3
20260901045038 66 0 0.0 0.0 0.00 0.00 0.00 90 1016.4
20260901044602 66 0 0.0 0.0 0.00 0.00 0.00 90 1016.4
20260901044040 66 0 0.0 0.0 0.00 0.00 0.00 90 1016.2
20260901043541 66 0 0.0 0.0 0.00 0.00 0.00 90 1016.2
20260901043116 66 0 0.0 0.0 0.00 0.00 0.00 89 1015.9
20260901042538 66 0 0.0 0.0 0.00 0.00 0.00 89 1016.0
20260901042034 66 0 0.0 0.0 0.00 0.00 0.00 89 1016.0
20260901041604 66 0 0.0 0.0 0.00 0.00 0.00 89 1016.1
20260901041034 66 0 0.0 0.0 0.00 0.00 0.00 89 1016.0
20260901040535 66 0 0.0 0.0 0.00 0.00 0.00 89 1016.0
20260901040104 66 0 0.0 0.0 0.00 0.00 0.00 89 1016.2
20260901035538 66 0 0.0 0.0 0.00 0.00 0.00 88 1016.2
20260901035036 66 0 0.0 0.0 0.00 0.00 0.00 88 1016.2
20260901034604 66 0 0.0 0.0 0.00 0.00 0.00 88 1016.3
20260901034034 67 0 0.0 0.0 0.00 0.00 0.00 88 1016.2
20260901033534 67 0 0.0 0.0 0.00 0.00 0.00 88 1016.2
20260901033102 67 0 0.0 0.0 0.00 0.00 0.00 88 1016.3
20260901032534 67 0 0.0 0.0 0.00 0.00 0.00 88 1016.2
20260901032035 67 0 0.0 0.0 0.00 0.00 0.00 87 1016.3
20260901031558 67 0 0.0 0.0 0.00 0.00 0.00 87 1016.5
20260901031035 68 0 0.0 0.0 0.00 0.00 0.00 87 1016.5
20260901030539 68 0 0.0 0.0 0.00 0.00 0.00 87 1016.5
20260901030052 68 0 0.0 0.0 0.00 0.00 0.00 87 1016.6
20260901025538 68 0 0.0 0.0 0.00 0.00 0.00 87 1016.5
20260901025035 68 0 0.0 0.0 0.00 0.00 0.00 87 1016.6
20260901024555 68 0 0.0 0.0 0.00 0.00 0.00 86 1016.6
20260901024035 68 0 0.0 0.0 0.00 0.00 0.00 86 1016.6
20260901023539 68 0 0.0 0.0 0.00 0.00 0.00 86 1016.7
20260901023102 68 0 0.0 0.0 0.00 0.00 0.00 86 1016.7
20260901022534 68 0 0.0 0.0 0.00 0.00 0.00 86 1016.6
20260901022035 69 0 0.0 0.0 0.00 0.00 0.00 86 1016.8
20260901021555 69 0 0.0 0.0 0.00 0.00 0.00 86 1016.7
20260901021035 69 0 0.0 0.0 0.00 0.00 0.00 86 1016.8
20260901020541 69 0 0.0 0.0 0.00 0.00 0.00 85 1016.8
20260901020056 69 0 0.0 0.0 0.00 0.00 0.00 85 1016.8
20260901015534 69 0 0.0 0.0 0.00 0.00 0.00 85 1016.7
20260901015035 69 0 0.0 0.0 0.00 0.00 0.00 85 1016.7
20260901014553 69 0 0.0 0.0 0.00 0.00 0.00 85 1016.7
20260901014038 69 0 0.0 0.0 0.00 0.00 0.00 85 1016.6
20260901013538 69 0 0.0 0.0 0.00 0.00 0.00 85 1016.4
20260901013057 69 0 0.0 0.0 0.00 0.00 0.00 84 1016.4
20260901012534 69 0 0.0 0.0 0.00 0.00 0.00 84 1016.5
20260901012034 69 0 0.0 0.0 0.00 0.00 0.00 84 1016.5
20260901011557 69 0 0.0 0.0 0.00 0.00 0.00 84 1016.4
20260901011034 69 0 0.0 0.0 0.00 0.00 0.00 84 1016.4
20260901010537 69 0 0.0 0.0 0.00 0.00 0.00 84 1016.5
20260901005538 70 0 0.0 0.0 0.00 0.00 0.00 84 1016.3
20260901005035 70 0 0.0 0.0 0.00 0.00 0.00 83 1016.3
20260901004600 70 0 0.0 0.0 0.00 0.00 0.00 83 1016.4
20260901004037 70 0 0.0 0.0 0.00 0.00 0.00 83 1016.3
20260901003537 70 0 0.0 0.0 0.00 0.00 0.00 82 1016.3
20260901003057 70 0 0.0 0.0 0.00 0.00 0.00 82 1016.4
20260901002537 70 0 0.0 0.0 0.00 0.00 0.00 82 1016.5
20260901002038 70 0 0.0 0.0 0.00 0.00 0.00 82 1016.3
20260901001551 70 0 0.0 1.0 0.00 0.00 0.00 82 1016.2
20260901001038 70 0 0.0 2.0 0.00 0.00 0.00 82 1016.5
20260901000541 70 0 0.0 3.0 0.00 0.00 0.00 82 1016.3
20260901000057 70 192 1.0 3.0 0.00 0.00 0.00 82 1016.2
20260831235538 70 192 1.0 3.0 0.00 0.00 0.00 81 1016.2
20260831235035 71 192 1.0 3.0 0.00 0.00 0.00 81 1016.3
20260831234557 71 213 2.0 3.0 0.00 0.00 0.00 81 1016.5
20260831234034 71 220 0.0 1.0 0.00 0.00 0.00 81 1016.5
20260831233538 71 0 0.0 0.0 0.00 0.00 0.00 81 1016.5
20260831233053 71 0 0.0 0.0 0.00 0.00 0.00 81 1016.6
20260831232534 71 0 0.0 0.0 0.00 0.00 0.00 81 1017.0
20260831232038 71 0 0.0 0.0 0.00 0.00 0.00 81 1016.6
20260831231549 71 0 0.0 0.0 0.00 0.00 0.00 81 1016.6
20260831231035 71 0 0.0 0.0 0.00 0.00 0.00 81 1016.7
20260831230539 71 0 0.0 0.0 0.00 0.00 0.00 81 1017.0
20260831230104 71 0 0.0 0.0 0.00 0.00 0.00 81 1016.8
20260831225540 71 0 0.0 0.0 0.00 0.00 0.00 81 1017.1
20260831225034 71 0 0.0 2.0 0.00 0.00 0.00 81 1016.7
20260831224555 71 0 0.0 4.0 0.00 0.00 0.00 81 1016.8
20260831224035 71 0 0.0 5.0 0.00 0.00 0.00 81 1016.9
20260831223539 71 0 2.0 5.0 0.00 0.00 0.00 81 1017.1
20260831223058 71 216 2.0 8.0 0.00 0.00 0.00 80 1017.0
20260831222538 71 0 1.0 8.0 0.00 0.00 0.00 80 1017.0
20260831222041 71 243 5.0 8.0 0.00 0.00 0.00 79 1017.0
20260831221556 72 228 1.0 5.0 0.00 0.00 0.00 79 1017.0
20260831221037 72 222 2.0 9.0 0.00 0.00 0.00 78 1016.8
20260831220534 72 263 3.0 13.0 0.00 0.00 0.00 77 1017.0
20260831220112 73 267 4.0 13.0 0.00 0.00 0.00 75 1017.0
20260831215540 74 229 4.0 9.0 0.00 0.00 0.00 72 1017.2
20260831215040 75 207 1.0 4.0 0.00 0.00 0.00 72 1017.1
20260831214556 75 329 2.0 4.0 0.00 0.00 0.00 71 1016.8
20260831214037 75 321 0.0 4.0 0.00 0.00 0.00 71 1016.8
20260831213538 76 332 3.0 4.0 0.00 0.00 0.00 70 1017.2
20260831213054 76 352 1.0 3.0 0.00 0.00 0.00 69 1016.8
20260831212543 76 352 0.0 3.0 0.00 0.00 0.00 69 1017.2
20260831212040 76 0 0.0 2.0 0.00 0.00 0.00 70 1017.0
20260831211555 76 0 0.0 2.0 0.00 0.00 0.00 69 1016.9
20260831211039 75 0 0.0 2.0 0.00 0.00 0.00 69 1016.8
20260831210541 75 0 0.0 1.0 0.00 0.00 0.00 70 1016.9
20260831210050 75 0 0.0 1.0 0.00 0.00 0.00 70 1016.8
20260831205539 75 0 0.0 1.0 0.00 0.00 0.00 69 1016.9
20260831205038 75 0 0.0 0.0 0.00 0.00 0.00 70 1017.0
20260831204559 75 0 0.0 0.0 0.00 0.00 0.00 70 1017.1
20260831204040 75 0 0.0 0.0 0.00 0.00 0.00 70 1017.5
20260831203538 75 0 0.0 0.0 0.00 0.00 0.00 70 1017.2
20260831203116 75 0 0.0 2.0 0.00 0.00 0.00 70 1017.1
20260831202538 75 0 0.0 3.0 0.00 0.00 0.00 72 1017.2
20260831202039 75 315 0.0 3.0 0.00 0.00 0.00 70 1017.3
20260831201554 75 352 1.0 3.0 0.00 0.00 0.00 70 1017.2
20260831201038 75 26 0.0 4.0 0.00 0.00 0.00 70 1017.1
20260831200539 75 0 0.0 5.0 0.00 0.00 0.00 71 1017.2
20260831200056 75 46 3.0 5.0 0.00 0.00 0.00 69 1017.0
20260831195534 75 55 2.0 4.0 0.00 0.00 0.00 67 1017.2
20260831195034 76 65 2.0 8.0 0.00 0.00 0.00 67 1017.3
20260831194552 76 111 4.0 8.0 0.00 0.00 0.00 68 1017.3
20260831194040 76 121 3.0 8.0 0.00 0.00 0.00 66 1017.2
20260831193541 76 9 1.0 5.0 0.00 0.00 0.00 68 1017.2
20260831193054 75 38 4.0 6.0 0.00 0.00 0.00 71 1017.3
20260831192538 75 7 4.0 6.0 0.00 0.00 0.00 73 1017.7
20260831192038 74 3 5.0 6.0 0.00 0.00 0.00 73 1017.7
20260831191557 74 22 4.0 8.0 0.00 0.00 0.00 73 1017.3
20260831191039 73 22 1.0 9.0 0.00 0.00 0.00 73 1017.4
20260831190535 73 33 5.0 9.0 0.00 0.00 0.00 75 1017.5
20260831190132 73 20 3.0 9.0 0.00 0.00 0.00 75 1017.6
20260831185541 73 32 5.0 9.0 0.00 0.00 0.00 75 1017.8
20260831185043 73 111 3.0 9.0 0.00 0.00 0.00 73 1017.9
20260831184553 73 61 2.0 9.0 0.00 0.00 0.00 75 1018.1
20260831184041 72 14 3.0 7.0 0.00 0.00 0.00 76 1018.3
20260831183538 72 78 3.0 6.0 0.00 0.00 0.00 78 1018.5
20260831183059 72 13 3.0 7.0 0.00 0.00 0.00 81 1018.5
20260831182541 71 2 5.0 7.0 0.00 0.00 0.00 82 1018.5
20260831182038 70 8 4.0 7.0 0.00 0.00 0.00 81 1018.7
20260831181602 70 30 3.0 5.0 0.00 0.00 0.00 81 1018.7
20260831181040 70 33 3.0 5.0 0.00 0.00 0.00 81 1018.7
20260831180538 71 27 3.0 5.0 0.00 0.00 0.00 82 1018.6
20260831175538 70 14 1.0 4.0 0.00 0.00 0.00 85 1018.8
20260831175038 70 11 2.0 4.0 0.00 0.00 0.00 86 1018.8
20260831174602 69 13 1.0 7.0 0.00 0.00 0.00 87 1018.9
20260831174038 69 13 4.0 7.0 0.00 0.00 0.00 88 1019.0
20260831173538 69 17 3.0 9.0 0.00 0.00 0.00 90 1019.2
20260831173058 68 17 5.0 9.0 0.00 0.00 0.00 91 1019.1
20260831172542 68 11 5.0 7.0 0.00 0.00 0.00 92 1019.2
20260831172039 67 16 4.0 6.0 0.00 0.00 0.00 91 1019.2
20260831171558 67 19 2.0 6.0 0.00 0.00 0.00 92 1019.3
20260831171039 67 25 3.0 7.0 0.00 0.00 0.00 92 1019.2
20260831170539 66 22 4.0 7.0 0.00 0.00 0.00 93 1019.3
20260831170110 66 32 5.0 7.0 0.00 0.00 0.00 93 1019.3
20260831165538 66 22 5.0 7.0 0.00 0.00 0.00 93 1019.4
20260831165038 66 30 5.0 7.0 0.00 0.00 0.00 93 1019.3
20260831164604 66 22 5.0 7.0 0.00 0.00 0.00 94 1019.5
20260831164039 65 27 5.0 7.0 0.00 0.00 0.00 94 1019.5
20260831163539 65 25 4.0 7.0 0.00 0.00 0.00 94 1019.5
20260831163105 65 30 5.0 8.0 0.00 0.00 0.00 94 1019.7
20260831162538 65 30 5.0 8.0 0.00 0.00 0.00 94 1019.8
20260831162039 65 37 5.0 8.0 0.00 0.00 0.00 94 1019.8
20260831161607 65 40 4.0 6.0 0.00 0.00 0.00 94 1019.9
20260831161040 65 50 4.0 6.0 0.00 0.00 0.00 95 1019.9
20260831160544 65 47 2.0 6.0 0.00 0.00 0.00 95 1020.0
20260831160128 64 72 2.0 6.0 0.00 0.00 0.00 95 1020.0
20260831155539 64 115 3.0 6.0 0.00 0.00 0.00 95 1020.0
20260831155039 64 95 2.0 5.0 0.00 0.00 0.00 95 1019.9
20260831154622 64 84 2.0 6.0 0.00 0.00 0.00 95 1019.9
20260831154041 64 84 3.0 6.0 0.00 0.00 0.00 95 1019.9
20260831153539 64 94 4.0 6.0 0.00 0.00 0.00 95 1019.8
20260831153132 63 109 4.0 6.0 0.00 0.00 0.00 95 1019.8
20260831152538 63 96 2.0 6.0 0.00 0.00 0.00 95 1019.8
20260831152040 63 92 3.0 7.0 0.00 0.00 0.00 95 1019.6
20260831151602 63 101 4.0 7.0 0.00 0.00 0.00 95 1019.7
20260831151039 63 75 3.0 7.0 0.00 0.00 0.00 95 1019.8
20260831150544 63 55 4.0 7.0 0.00 0.00 0.00 95 1019.8
20260831150058 63 51 4.0 7.0 0.00 0.00 0.00 95 1019.8
20260831145538 63 53 3.0 6.0 0.00 0.00 0.00 95 1019.9
20260831145042 62 53 3.0 5.0 0.00 0.00 0.00 95 1020.0
20260831144555 62 63 3.0 5.0 0.00 0.00 0.00 95 1019.9
20260831144038 62 73 2.0 5.0 0.00 0.00 0.00 95 1019.9
20260831143539 62 82 2.0 5.0 0.00 0.00 0.00 94 1019.9
20260831143055 62 64 3.0 5.0 0.00 0.00 0.00 95 1019.9
20260831142538 62 83 2.0 6.0 0.00 0.00 0.00 95 1019.9
20260831142040 62 126 3.0 6.0 0.00 0.00 0.00 95 1019.9
20260831141552 62 87 3.0 6.0 0.00 0.00 0.00 95 1019.9
20260831141042 62 107 3.0 6.0 0.00 0.00 0.00 95 1019.9
20260831140539 62 83 3.0 6.0 0.00 0.00 0.00 94 1020.0
20260831140056 62 76 3.0 6.0 0.00 0.00 0.00 94 1020.0
20260831135539 61 69 3.0 6.0 0.00 0.00 0.00 95 1020.0
20260831135039 61 77 3.0 7.0 0.00 0.00 0.00 95 1019.9
20260831134605 61 84 3.0 7.0 0.00 0.00 0.00 95 1019.9
20260831134039 61 78 4.0 8.0 0.00 0.00 0.00 94 1019.7
20260831133538 61 65 5.0 8.0 0.00 0.00 0.00 94 1019.7
20260831133056 61 71 5.0 8.0 0.00 0.00 0.00 95 1019.6
20260831132538 60 83 5.0 7.0 0.00 0.00 0.00 94 1019.6
20260831132039 60 65 4.0 7.0 0.00 0.00 0.00 94 1019.7
20260831131604 60 89 4.0 7.0 0.00 0.00 0.00 94 1019.8
20260831131042 60 69 4.0 7.0 0.00 0.00 0.00 94 1019.8
20260831130539 60 76 4.0 7.0 0.00 0.00 0.00 94 1019.8
20260831130114 60 71 3.0 6.0 0.00 0.00 0.00 94 1020.0
20260831125539 60 86 3.0 6.0 0.00 0.00 0.00 94 1020.0
20260831125039 60 80 4.0 7.0 0.00 0.00 0.00 94 1020.0
20260831124600 60 56 4.0 7.0 0.00 0.00 0.00 94 1020.1
20260831124038 60 65 4.0 7.0 0.00 0.00 0.00 94 1020.0
20260831123539 60 64 4.0 7.0 0.00 0.00 0.00 94 1020.1
20260831123054 60 71 4.0 8.0 0.00 0.00 0.00 94 1020.0
20260831122540 60 106 4.0 9.0 0.00 0.00 0.00 94 1019.9
20260831122039 60 99 5.0 9.0 0.00 0.00 0.00 94 1020.0
20260831121600 60 99 5.0 9.0 0.00 0.00 0.00 94 1020.0
20260831121050 59 134 5.0 9.0 0.00 0.00 0.00 94 1020.0
20260831120539 59 103 5.0 9.0 0.00 0.00 0.00 94 1020.0
20260831120144 59 92 3.0 8.0 0.00 0.00 0.00 94 1020.0
20260831115542 59 99 4.0 8.0 0.00 0.00 0.00 94 1020.1
20260831115042 59 65 4.0 8.0 0.00 0.00 0.00 93 1020.0
20260831114554 59 89 4.0 7.0 0.00 0.00 0.00 93 1019.9
20260831114038 59 90 4.0 7.0 0.00 0.00 0.00 93 1019.9
20260831113535 58 85 4.0 7.0 0.00 0.00 0.00 93 1019.9
20260831113102 58 92 4.0 7.0 0.00 0.00 0.00 93 1019.8
20260831112539 58 103 3.0 7.0 0.00 0.00 0.00 93 1019.9
20260831112039 58 99 3.0 7.0 0.00 0.00 0.00 93 1020.0
20260831111601 58 99 4.0 10.0 0.00 0.00 0.00 93 1019.8
20260831111038 58 95 6.0 10.0 0.00 0.00 0.00 93 1019.8
20260831110539 58 105 7.0 10.0 0.00 0.00 0.00 93 1019.9
20260831110056 58 92 7.0 9.0 0.00 0.00 0.00 93 1019.9
20260831105538 58 90 5.0 10.0 0.00 0.00 0.00 93 1019.7
20260831105040 58 95 5.0 10.0 0.00 0.00 0.00 93 1019.7
20260831104551 58 92 8.0 12.0 0.00 0.00 0.00 92 1019.7
20260831104040 58 97 7.0 12.0 0.00 0.00 0.00 92 1019.5
20260831103541 58 99 6.0 12.0 0.00 0.00 0.00 93 1019.5
20260831103058 58 85 7.0 12.0 0.00 0.00 0.00 92 1019.3
20260831102538 59 73 9.0 12.0 0.00 0.00 0.00 92 1019.3
20260831102038 59 88 9.0 12.0 0.00 0.00 0.00 92 1019.2
20260831101621 59 78 6.0 9.0 0.00 0.00 0.00 92 1018.9
20260831101040 59 82 5.0 10.0 0.00 0.00 0.00 92 1019.3
20260831100538 59 98 6.0 10.0 0.00 0.00 0.00 92 1019.2
20260831100058 59 70 7.0 10.0 0.00 0.00 0.00 92 1019.2
20260831095538 59 74 4.0 8.0 0.00 0.00 0.00 93 1019.2
20260831095038 59 105 3.0 5.0 0.00 0.00 0.00 93 1019.1
20260831094605 59 94 2.0 4.0 0.00 0.00 0.00 93 1019.1
20260831094042 59 118 2.0 4.0 0.00 0.00 0.00 93 1019.1
20260831093541 59 105 2.0 4.0 0.00 0.00 0.00 93 1019.1
20260831093101 59 114 1.0 3.0 0.00 0.00 0.00 93 1019.1
20260831092540 59 140 2.0 3.0 0.00 0.00 0.00 92 1019.0
20260831092041 59 140 2.0 3.0 0.00 0.00 0.00 92 1018.9
20260831091603 59 140 1.0 3.0 0.00 0.00 0.00 92 1018.9
20260831091040 59 140 1.0 4.0 0.00 0.00 0.00 92 1019.0
20260831090537 59 140 1.0 4.0 0.00 0.00 0.00 92 1018.8
20260831090057 59 134 2.0 4.0 0.00 0.00 0.00 92 1018.9
20260831085535 60 130 1.0 6.0 0.00 0.00 0.00 92 1018.9
20260831085037 60 130 2.0 6.0 0.00 0.00 0.00 92 1018.9
20260831084558 60 86 2.0 4.0 0.00 0.00 0.00 92 1018.9
20260831084033 60 68 1.0 2.0 0.00 0.00 0.00 92 1019.0
20260831083535 60 68 0.0 2.0 0.00 0.00 0.00 92 1019.0
20260831083059 60 0 0.0 2.0 0.00 0.00 0.00 92 1019.2
20260831082537 60 0 0.0 2.0 0.00 0.00 0.00 92 1019.2
20260831082038 60 69 1.0 2.0 0.00 0.00 0.00 92 1019.1
20260831081600 60 0 1.0 2.0 0.00 0.00 0.00 92 1019.2
20260831081037 60 0 0.0 0.0 0.00 0.00 0.00 92 1019.1
20260831080538 60 0 0.0 2.0 0.00 0.00 0.00 92 1019.1
20260831080051 60 0 0.0 2.0 0.00 0.00 0.00 92 1019.1
20260831075535 60 68 1.0 2.0 0.00 0.00 0.00 92 1019.1